This is the latest recevied weather packets stored in our database for station/object KE0YJJ-14. If no packets are shown the sender has not sent any weather packets the latest 10 day(s).
| Time | Temp. | Humidity | Pressure | Rain* | Wind** | Luminosity | Snow |
|---|---|---|---|---|---|---|---|
| 1777421940 | 11.11° C | 54% | - | 0 mm | - | - | - |
| 1777421636 | 11.11° C | 55% | - | 0 mm | - | - | - |
| 1777421331 | 11.11° C | 60% | - | 0 mm | - | - | - |
| 1777421028 | 10.56° C | 59% | - | 0 mm | - | - | - |
| 1777420724 | 10.56° C | 59% | - | 0 mm | - | - | - |
| 1777420421 | 10.56° C | 59% | - | 0 mm | - | - | - |
| 1777420117 | 10.56° C | 59% | - | 0 mm | - | - | - |
| 1777419813 | 10.56° C | 58% | - | 0 mm | - | - | - |
| 1777419511 | 10.56° C | 58% | - | 0 mm | - | - | - |
| 1777419209 | 10.56° C | 55% | - | 0 mm | - | - | - |
| 1777418906 | 10.56° C | 57% | - | 0 mm | - | - | - |
| 1777418602 | 10.56° C | 56% | - | 0 mm | - | - | - |
| 1777418298 | 10.56° C | 54% | - | 0 mm | - | - | - |
| 1777417994 | 10.56° C | 56% | - | 0 mm | - | - | - |
| 1777417690 | 10.56° C | 55% | - | 0 mm | - | - | - |
| 1777417385 | 11.11° C | 54% | - | 0 mm | - | - | - |
| 1777417082 | 11.11° C | 54% | - | 0 mm | - | - | - |
| 1777416778 | 11.67° C | 52% | - | 0 mm | - | - | - |
| 1777416473 | 11.67° C | 49% | - | 0 mm | - | - | - |
| 1777416169 | 11.67° C | 52% | - | 0 mm | - | - | - |
| 1777415864 | 12.22° C | 52% | - | 0 mm | - | - | - |
| 1777415559 | 12.22° C | 51% | - | 0 mm | - | - | - |
| 1777415255 | 12.22° C | 54% | - | 0 mm | - | - | - |
| 1777414951 | 11.67° C | 49% | - | 0 mm | - | - | - |
| 1777414650 | 12.22° C | 50% | - | 0 mm | - | - | - |
* Rain latest hour (hover to see other rain measurements)
** Current wind speed in m/s (hover to see current wind gust speed)